User: anonymous   Login
Location: Unspecified
(0.0000°N, 0.0000°E)
Time: 09:09:26
(UTC+00:00)
Language:

S-NET D - Orbit

View from above orbital plane
View from above orbital plane
View from above satellite
View from above satellite

Ground track
Ground track

The orbit data is extracted from the following two-line orbital elements,

1 43186U 18014G   25343.51619870  .00008851  00000-0  48669-3 0  9998
2 43186  97.5486 244.6302 0007637 327.0879  32.9876 15.14288164430038
Epoch (UTC): 09 December 2025 12:23:19
Eccentricity: 0.0007637
inclination: 97.5486°
perigee height: 518 km
apogee height: 528 km
right ascension of ascending node: 244.6302°
argument of perigee: 327.0879°
revolutions per day: 15.14288164
mean anomaly at epoch: 32.9876°
orbit number at epoch: 43003

The dashed part of the orbit path shows where the satellite is in the earth's shadow,  

DLR